Weather History for Jonesville, VA

Change the Weather History Date:

Sunday, March 17, 2013

  Actual Average (KLOZ) Record (KLOZ)
Temperature  
Mean Temperature 54 °F 48 °F  
Max Temperature 60 °F 59 °F 78 °F (1982)
Min Temperature 46 °F 36 °F 19 °F (1988)
Degree Days  
Heating Degree Days 11 17  
Month to date heating degree days 334  
Since 1 July heating degree days 3610  
Cooling Degree Days 0 0  
Month to date cooling degree days 0  
Year to date cooling degree days 0  
Growing Degree Days 4 (Base 50)    
Moisture  
Dew Point 49 °F    
Average Humidity 83    
Maximum Humidity 100    
Minimum Humidity 63    
Precipitation  
Precipitation 0.07 in 0.13 in 2.04 in (2002)
Month to date precipitation 2.22  
Year to date precipitation 9.47  
Sea Level Pressure  
Sea Level Pressure 29.95 in    
Wind  
Wind Speed 2 mph (NE)    
Max Wind Speed 9 mph    
Max Gust Speed -    
Visibility 8 miles    
Events Rain    
T = Trace of Precipitation, MM = Missing Value Source: NWS Daily Summary

Daily Weather History Graph

Daily Weather History Graph

Search for Another Location

Airport:

Trip Planner

Search our weather history database for the weather conditions in past years. The results will help you decide how hot, cold, wet, or windy it might be!

Date:

Astronomy

Mar. 17, 2013 Rise Set
Actual Time 7:40 AM EDT 7:42 PM EDT
Civil Twilight 7:14 AM EDT 8:08 PM EDT
Nautical Twilight 6:44 AM EDT 8:38 PM EDT
Astronomical Twilight 6:14 AM EDT 9:08 PM EDT
Moon 11:01 AM EDT (3/17) 12:40 AM EDT (3/17)
Length of Visible Light 12h 53m
Length of Day
12h 01m
Waxing Crescent, 31% of the Moon is Illuminated
Mar 17
Waxing Crescent
Mar 19
First Quarter
Mar 27
Full
Apr 3
Last Quarter
Apr 10
New

Hourly Weather History & Observations

Time (EDT) Temp. Windchill Dew Point Humidity Pressure Visibility Wind Dir Wind Speed Gust Speed Precip Events Conditions
12:15 AM 55.4 °F - 48.2 °F 77% 29.93 in 10.0 mi Calm Calm - N/A   Unknown
12:35 AM 55.4 °F - 48.2 °F 77% 29.92 in 10.0 mi Calm Calm - N/A   Unknown
12:55 AM 55.4 °F - 48.2 °F 77% 29.93 in 10.0 mi Calm Calm - N/A   Overcast
1:15 AM 55.4 °F - 48.2 °F 77% 29.92 in 10.0 mi Calm Calm - N/A   Unknown
1:35 AM 57.2 °F - 48.2 °F 72% 29.93 in 10.0 mi Calm Calm - N/A   Overcast
1:55 AM 57.2 °F - 48.2 °F 72% 29.93 in 9.0 mi NNW 3.5 mph - N/A Rain Light Rain
2:15 AM 55.4 °F - 50.0 °F 82% 29.93 in 7.0 mi Calm Calm - N/A Rain Light Rain
2:35 AM 55.4 °F - 50.0 °F 82% 29.93 in 10.0 mi Calm Calm - 0.01 in   Overcast
2:55 AM 53.6 °F - 51.8 °F 94% 29.92 in 10.0 mi Calm Calm - 0.01 in Rain Light Rain
3:15 AM 53.6 °F - 51.8 °F 94% 29.93 in 9.0 mi Calm Calm - N/A Rain Light Rain
3:35 AM 53.6 °F - 51.8 °F 94% 29.94 in 6.0 mi Calm Calm - 0.01 in Rain Light Rain
3:55 AM 53.6 °F - 51.8 °F 94% 29.94 in 5.0 mi Calm Calm - 0.02 in Rain Light Rain
4:15 AM 53.6 °F - 51.8 °F 94% 29.94 in 3.0 mi Calm Calm - 0.02 in Rain Light Rain
4:55 AM 51.8 °F - 51.8 °F 100% 29.93 in 3.0 mi Calm Calm - 0.04 in Rain Light Rain
5:15 AM 51.8 °F - 51.8 °F 100% 29.94 in 3.0 mi Calm Calm - N/A   Overcast
5:35 AM 51.8 °F - 51.8 °F 100% 29.94 in 3.0 mi Calm Calm - N/A Rain Light Rain
5:55 AM 51.8 °F - 51.8 °F 100% 29.95 in 2.0 mi Calm Calm - N/A   Overcast
6:15 AM 50.0 °F - 50.0 °F 100% 29.95 in 0.8 mi Calm Calm - N/A   Overcast
6:35 AM 50.0 °F - 50.0 °F 100% 29.95 in 2.0 mi Calm Calm - N/A   Overcast
6:55 AM 50.0 °F - 50.0 °F 100% 29.96 in 2.0 mi Calm Calm - N/A   Overcast
7:15 AM 50.0 °F - 50.0 °F 100% 29.96 in 2.0 mi Calm Calm - N/A   Overcast
7:35 AM 50.0 °F - 50.0 °F 100% 29.98 in 3.0 mi Calm Calm - N/A   Overcast
7:55 AM 50.0 °F - 50.0 °F 100% 29.98 in 0.8 mi Calm Calm - N/A   Overcast
8:15 AM 50.0 °F - 50.0 °F 100% 29.98 in 1.0 mi Calm Calm - N/A   Overcast
8:35 AM 50.0 °F - 50.0 °F 100% 29.99 in 1.0 mi Calm Calm - N/A   Overcast
9:15 AM 51.8 °F - 51.8 °F 100% 29.99 in 2.5 mi Calm Calm - N/A   Overcast
9:35 AM 51.8 °F - 51.8 °F 100% 29.99 in 2.5 mi Calm Calm - N/A   Overcast
9:55 AM 53.6 °F - 53.6 °F 100% 30.01 in 4.0 mi Calm Calm - N/A   Overcast
10:35 AM 53.6 °F - 50.0 °F 88% 30.01 in 8.0 mi Calm Calm - N/A   Overcast
11:15 AM 53.6 °F - 50.0 °F 88% 30.01 in 7.0 mi Calm Calm - N/A   Overcast
11:35 AM 53.6 °F - 48.2 °F 82% 30.01 in 7.0 mi NNE 3.5 mph - N/A   Overcast
11:55 AM 53.6 °F - 48.2 °F 82% 30.00 in 8.0 mi Calm Calm - N/A   Mostly Cloudy
12:15 PM 53.6 °F - 50.0 °F 88% 30.00 in 8.0 mi East 9.2 mph - N/A   Mostly Cloudy
12:55 PM 53.6 °F - 48.2 °F 82% 29.99 in 9.0 mi NE 6.9 mph - N/A   Overcast
1:15 PM 55.4 °F - 48.2 °F 77% 29.99 in 9.0 mi NE 8.1 mph - N/A   Overcast
1:55 PM 55.4 °F - 48.2 °F 77% 29.97 in 10.0 mi NE 8.1 mph - N/A   Overcast
2:15 PM 57.2 °F - 48.2 °F 72% 29.96 in 10.0 mi NE 5.8 mph - N/A   Mostly Cloudy
2:35 PM 59.0 °F - 48.2 °F 67% 29.95 in 10.0 mi NNE 8.1 mph - N/A   Scattered Clouds
2:55 PM 59.0 °F - 48.2 °F 67% 29.94 in 10.0 mi NE 8.1 mph - N/A   Partly Cloudy
3:15 PM 59.0 °F - 48.2 °F 67% 29.93 in 10.0 mi NE 5.8 mph - N/A   Partly Cloudy
3:35 PM 59.0 °F - 48.2 °F 67% 29.93 in 10.0 mi NE 4.6 mph - N/A   Clear
3:55 PM 59.0 °F - 48.2 °F 67% 29.91 in 10.0 mi ENE 6.9 mph - N/A   Clear
4:15 PM 60.8 °F - 48.2 °F 63% 29.91 in 10.0 mi NNE 5.8 mph - N/A   Clear
4:35 PM 60.8 °F - 48.2 °F 63% 29.91 in 10.0 mi ENE 5.8 mph - N/A   Scattered Clouds
4:55 PM 59.0 °F - 48.2 °F 67% 29.90 in 10.0 mi East 8.1 mph - N/A   Mostly Cloudy
5:15 PM 60.8 °F - 48.2 °F 63% 29.90 in 10.0 mi ENE 5.8 mph - N/A   Partly Cloudy
5:35 PM 59.0 °F - 48.2 °F 67% 29.89 in 10.0 mi East 5.8 mph - N/A   Scattered Clouds
5:55 PM 59.0 °F - 48.2 °F 67% 29.89 in 10.0 mi ENE 5.8 mph - N/A   Scattered Clouds
6:15 PM 59.0 °F - 48.2 °F 67% 29.90 in 10.0 mi NE 3.5 mph - N/A   Scattered Clouds
6:35 PM 57.2 °F - 48.2 °F 72% 29.90 in 10.0 mi North 5.8 mph - N/A   Mostly Cloudy
6:55 PM 57.2 °F - 48.2 °F 72% 29.92 in 10.0 mi NNW 3.5 mph - N/A   Overcast
7:15 PM 55.4 °F - 46.4 °F 72% 29.93 in 10.0 mi Calm Calm - N/A   Overcast
7:35 PM 55.4 °F - 46.4 °F 72% 29.94 in 10.0 mi Calm Calm - N/A   Overcast
7:55 PM 53.6 °F - 46.4 °F 77% 29.94 in 10.0 mi Calm Calm - N/A   Mostly Cloudy
8:15 PM 53.6 °F - 46.4 °F 77% 29.94 in 10.0 mi East 5.8 mph - N/A   Mostly Cloudy
8:35 PM 53.6 °F - 46.4 °F 77% 29.94 in 10.0 mi ENE 5.8 mph - N/A   Mostly Cloudy
8:55 PM 53.6 °F - 46.4 °F 77% 29.95 in 10.0 mi NE 5.8 mph - N/A   Overcast
9:15 PM 51.8 °F - 44.6 °F 76% 29.95 in 10.0 mi ENE 5.8 mph - N/A   Overcast
9:35 PM 51.8 °F - 44.6 °F 76% 29.95 in 10.0 mi ENE 3.5 mph - N/A   Overcast
9:55 PM 50.0 °F - 44.6 °F 82% 29.96 in 10.0 mi ENE 3.5 mph - N/A   Overcast
10:15 PM 50.0 °F - 44.6 °F 82% 29.95 in 10.0 mi ENE 4.6 mph - N/A   Overcast
10:35 PM 50.0 °F - 44.6 °F 82% 29.94 in 10.0 mi ENE 4.6 mph - N/A   Overcast
10:55 PM 50.0 °F - 44.6 °F 82% 29.94 in 10.0 mi ENE 5.8 mph - N/A   Overcast
11:15 PM 48.2 °F - 44.6 °F 87% 29.94 in 10.0 mi ENE 5.8 mph - N/A   Overcast
11:35 PM 48.2 °F - 44.6 °F 87% 29.94 in 10.0 mi NE 4.6 mph - N/A   Mostly Cloudy
11:55 PM 46.4 °F 45.2 °F 44.6 °F 93% 29.94 in 10.0 mi NE 3.5 mph - N/A   Mostly Cloudy